FENGYUN 1C DEB, 31891

Orbit data source: Space-Track

FENGYUN 1C DEB, 31891 is space debris in SSO originally from a launch on Mon, 10 May 1999 UTC launched from the Taiyaun Space Center, China (TSC). Fengyun 1C debris stems from the Chinese weather satellite Fengyun-1C, which was intentionally destroyed by a Chinese anti-satellite missile in 2007. This event dramatically increased the amount of space debris, with thousands of trackable fragments posing hazards to satellites and human spaceflight. The Fengyun 1C debris cloud has become a focal point in discussions about space sustainability and the need for international regulations to prevent the creation of new debris.

Loading next visibility...
Identifier
31891, 1999-025CKS
Orbit
SSO
Country
Flag of CNCN / PRC
Related business
Manufacturer
Unknown
Mission
Spacecraft
Bus & Motor
Unknown
Mass
Unknown
Launch date (UTC)
1999-05-10 (27 years ago)
Launch vehicle
Unknown
Launch site
Taiyaun Space Center, China (TSC)
Object type
Payload
Rocket body
Debris
Shape & HBR
Unknown shape, 0.1 m
Radar Cross Section
Small (<0.1 m²)

Expand to show TLE details & history
Last TLE update: 23 hours ago

TLE from 23 hours ago
0 FENGYUN 1C DEB
1 31891U 99025CKS 26037.48236607  .00000558  00000-0  61073-3 0  9999
2 31891  99.4002  55.9624 0224849  39.7384 321.9993 13.66267787931712
Epoch: 2026-02-06T11:34Z
TLE epoch observation values (Epoch: 2026-02-06T11:34:36.428Z)
Latitude
-0.00004°
Longitude
105.69102°
Altitude
886.292 km
Speed
7.474 km/s
True Right ascension
03h 43m 50s
True Declination
0° 00' 00"
Sunlit
Object was in daylight at epoch
Visualization orbit readout
Latitude
Unknown
Longitude
Unknown
Altitude
Unknown
Speed
Unknown
Apparent Right ascension
Unknown
Apparent Declination
Unknown
Sunlit
N/A
Visualization observer readout
Local Sidereal Time
13:13:48
Azimuth
Unknown
Elevation
Unknown
Doppler factor
Unknown
Orbital elements
Apogee altitude
1,176.39 km
Perigee altitude
844.135 km
Semi-major axis
7,388.4 km
Eccentricity
0.02248
Inclination
99.4002°
RAAN
55.9624°
Arg. of periapsis
39.7384°
True anomaly
320.3773°
Mean anomaly
321.9993°
Eccentric anomaly
321.19191°
Mean motion
3.41757 °/min
Orbital period
105.34 mins
BSTAR
0.00061073
Loading maneuver chart data...
Computing Atmospheric mass density...

Documentation

Showing up to 5 results
|